Soldotna, AK

11:49 AM AKST on December 17, 2017 (GMT -0900)
Soldotna

Weather History for PASX - January, 2011

Change the Weather History Date:

Wednesday, January 12, 2011

  Actual Average Record
Temperature  
Mean Temperature 9 °F -  
Max Temperature 23 °F 18 °F 41 °F (2003)
Min Temperature -5 °F 0 °F -40 °F (1972)
Degree Days  
Heating Degree Days 56    
Moisture  
Dew Point -2 °F    
Average Humidity 80    
Maximum Humidity 100    
Minimum Humidity 43    
Precipitation  
Precipitation 0.00 in - - ()
Sea Level Pressure  
Sea Level Pressure 30.29 in    
Wind  
Wind Speed 2 mph (East)    
Max Wind Speed 5 mph    
Max Gust Speed -    
Visibility 10 miles    
Events      
Averages and records for this station are not official NWS values.
T = Trace of Precipitation, MM = Missing Value Source: NWS Daily Summary

Daily Weather History Graph

Daily Weather History Graph

Search for Another Location

Airport or City:

Trip Planner

Search our weather history database for the weather conditions in past years. The results will help you decide how hot, cold, wet, or windy it might be!

Date:

Astronomy

Jan. 12, 2011 Rise Set
Actual Time 9:59 AM AKST 4:25 PM AKST
Civil Twilight 9:04 AM AKST 5:20 PM AKST
Nautical Twilight 8:09 AM AKST 6:16 PM AKST
Astronomical Twilight 7:18 AM AKST 7:07 PM AKST
Moon 11:17 AM AKST (1/12) 2:27 AM AKST (1/12)
Length of Visible Light 8h 15m
Length of Day
6h 25m
First Quarter, 54% of the Moon is Illuminated
Jan 12
First Quarter
Jan 19
Full
Jan 26
Last Quarter
Feb 2
New
Feb 10
First Quarter

Hourly Weather History & Observations

Time (AKST) Temp. Windchill Dew Point Humidity Pressure Visibility Wind Dir Wind Speed Gust Speed Precip Events Conditions
12:56 AM -2.2 °F -10.4 °F -5.8 °F 85% 30.39 in 10.0 mi East 3.5 mph - N/A   Clear
1:56 AM -2.2 °F -12.5 °F -7.6 °F 78% 30.37 in 10.0 mi East 4.6 mph - N/A   Clear
2:56 AM -2.2 °F - -7.6 °F 78% 30.35 in 10.0 mi Calm Calm - N/A   Clear
3:56 AM -2.2 °F - -7.6 °F 78% 30.35 in 10.0 mi Calm Calm - N/A   Clear
4:56 AM -4.0 °F - -9.4 °F 78% 30.33 in 10.0 mi Calm Calm - N/A   Clear
5:56 AM -5.8 °F - -7.6 °F 92% 30.32 in 10.0 mi Calm Calm - N/A   Clear
6:56 AM -4.0 °F - -7.6 °F 85% 30.30 in 10.0 mi Calm Calm - N/A   Clear
7:56 AM -4.0 °F -12.4 °F -7.6 °F 85% 30.31 in 10.0 mi East 3.5 mph - N/A   Clear
8:56 AM -5.8 °F - -9.4 °F 84% 30.30 in 10.0 mi Calm Calm - N/A   Clear
9:56 AM -4.0 °F - -7.6 °F 85% 30.32 in 10.0 mi Calm Calm - N/A   Clear
10:56 AM -4.0 °F - -7.6 °F 85% 30.31 in 10.0 mi Calm Calm - N/A   Clear
11:56 AM 1.4 °F - -2.2 °F 85% 30.31 in 10.0 mi Calm Calm - N/A   Clear
12:56 PM 1.4 °F -6.2 °F -2.2 °F 85% 30.29 in 10.0 mi SSE 3.5 mph - N/A   Clear
1:56 PM 6.8 °F - 3.2 °F 85% 30.28 in 10.0 mi Calm Calm - N/A   Clear
2:56 PM 8.6 °F 2.0 °F 8.6 °F 100% 30.27 in 10.0 mi ESE 3.5 mph - N/A   Clear
3:56 PM 6.8 °F - 5.0 °F 92% 30.23 in 8.0 mi Calm Calm - N/A   Clear
4:56 PM 8.6 °F 0.1 °F 3.2 °F 79% 30.22 in 10.0 mi East 4.6 mph - N/A   Clear
5:56 PM 12.2 °F 6.1 °F 5.0 °F 73% 30.22 in 10.0 mi ENE 3.5 mph - N/A   Clear
6:56 PM 23.0 °F 17.0 °F 6.8 °F 50% 30.22 in 10.0 mi NNE 4.6 mph - N/A   Clear
7:56 PM 23.0 °F 17.0 °F 3.2 °F 43% 30.22 in 10.0 mi NE 4.6 mph - N/A   Clear
8:56 PM 12.2 °F 6.1 °F 6.8 °F 79% 30.23 in 10.0 mi East 3.5 mph - N/A   Clear
9:56 PM 8.6 °F 0.1 °F 1.4 °F 73% 30.24 in 10.0 mi East 4.6 mph - N/A   Clear
10:56 PM -0.4 °F -10.4 °F -5.8 °F 78% 30.25 in 10.0 mi East 4.6 mph - N/A   Clear
11:56 PM -2.2 °F -10.4 °F -5.8 °F 85% 30.26 in 10.0 mi East 3.5 mph - N/A   Clear